Delta Virtual Airport Information Service

Bethel Airport

ICAO: PABE Country: United States
Latitude: 60.7798 Longitude: -161.838
Latest Arrival : ASA97 (PANC-PABE) Latest Departure : DAX366 (PABE-MMCL)


WX CaptureLIVE
Data provided by noaa.gov | Fetched at 23:21:06

METAR : PABE 120353Z 28013KT 10SM SCT047 10/03 A3005 RMK AO2 SLP178 T01000028

TAF : PABE 112326Z 1200/1224 28008KT P6SM VCSH BKN025 OVC035 FM121200 29005KT 6SM BR OVC025


Runway Data for PABE
Data provided by openaviationdata.com

Runway ID Mag Var Hdg Length Elevation Surface ILS Freq ILS Id ILS Slope
11 18 110° 1845 ft 123 ft Gravel -- -- --
18 18 185° 6381 ft 123 ft Asphalt 111.5 IBET 3
29 18 290° 1845 ft 123 ft Gravel -- -- --
36 18 6381 ft 123 ft Asphalt -- -- --

Bethel Airport, United States
Use only for reference purposes



Not for navigational purposes.